Wind_Speed
8 7 7 8 11 13 16 19 20 21 20 19 19 18 16 14 12 9 6 4 2 1 1 3 4 4 4 4 3 4 4 4 4 4 4 5 5 6 6 6 5 5 4 4 4 3 3 3 3
7 6 6 7 10 13 16 19 20 20 20 19 19 18 16 15 12 10 7 5 3 2 2 3 4 4 4 4 4 4 4 3 3 3 3 4 5 5 6 6 5 5 4 4 4 3 3 3 3
5 5 5 6 9 12 14 17 19 19 19 19 19 18 17 15 13 10 8 5 3 2 2 3 4 5 5 5 6 5 4 3 2 2 2 3 4 5 5 5 5 5 5 4 4 3 3 3 3
4 3 4 5 8 10 12 15 17 17 19 19 19 19 17 15 13 11 9 7 5 3 3 3 4 5 6 6 6 6 5 4 3 2 1 2 4 4 5 5 5 5 5 4 4 3 3 3 3
4 3 3 4 6 8 11 13 15 16 18 19 19 19 18 16 14 12 10 8 6 4 4 4 5 5 6 7 7 7 7 5 4 3 1 1 2 4 4 4 5 5 4 4 3 3 3 3 3
4 3 3 4 5 7 9 11 13 15 16 18 19 18 18 17 15 14 12 10 7 6 5 5 5 6 7 8 9 9 8 7 5 4 2 0 1 3 3 4 4 4 4 3 2 2 2 2 2
4 4 4 5 6 6 7 10 12 14 16 17 18 19 18 17 16 15 14 12 9 7 6 5 5 6 8 9 10 10 9 8 7 6 4 3 1 1 2 3 3 3 3 2 2 1 1 1 1
6 6 6 7 7 7 7 9 11 13 15 16 17 19 19 19 17 17 15 14 11 8 6 6 6 7 8 9 10 11 10 9 8 7 6 4 3 1 2 2 2 3 2 2 1 1 1 0 1
8 8 8 9 9 9 9 9 10 11 13 15 16 18 19 20 19 18 16 14 12 10 8 8 7 8 8 9 11 12 11 10 9 8 7 6 4 3 2 2 2 1 1 1 1 1 1 0 1
10 10 11 11 11 11 11 11 11 10 12 14 15 17 20 20 20 19 17 15 13 11 9 9 8 8 9 10 11 13 13 12 10 9 8 6 6 4 3 3 2 1 1 1 1 1 1 1 1
10 11 12 13 13 13 14 13 11 10 12 14 16 18 19 20 21 19 18 17 13 11 9 9 9 9 11 11 12 14 14 14 12 11 9 8 7 6 4 4 3 2 2 1 1 1 1 1 1
10 11 13 14 15 15 15 15 12 10 11 13 15 17 18 19 21 20 19 16 14 12 10 9 10 9 11 12 13 14 15 15 14 13 11 10 9 7 6 5 4 3 2 2 2 2 2 1 1
11 11 12 13 14 15 15 14 13 11 11 12 14 16 17 19 21 20 19 16 14 12 10 10 9 10 11 12 13 14 15 15 15 14 13 12 10 8 7 6 5 4 3 3 3 2 2 2 1
11 11 12 13 14 14 14 13 12 11 12 12 14 15 16 18 19 20 19 15 14 11 10 8 7 8 10 11 13 14 16 16 15 15 14 13 12 10 9 7 6 5 5 4 3 3 3 2 2
13 12 12 13 14 14 14 12 12 12 12 13 15 15 16 17 18 19 19 15 14 11 9 7 6 7 9 11 13 14 16 16 16 16 15 14 12 11 10 8 7 6 6 5 4 4 4 3 2
14 13 13 13 14 15 14 12 12 13 13 14 15 16 16 16 18 18 17 14 14 12 10 9 8 8 10 12 12 14 16 16 17 17 16 15 13 12 11 9 8 7 7 6 5 5 4 4 3
15 14 14 14 15 16 16 15 15 15 14 14 15 16 16 17 18 18 16 14 14 12 11 9 8 8 10 10 11 13 15 17 17 18 17 16 14 13 11 10 9 8 7 7 6 5 5 4 4
16 16 15 15 17 18 19 18 17 16 15 15 15 15 16 17 18 18 16 14 13 12 11 9 10 9 9 10 11 13 15 17 17 18 17 17 15 14 13 11 9 8 8 8 8 7 6 5 4
17 16 15 16 19 20 20 19 18 17 17 17 16 17 17 17 18 18 16 14 12 11 11 10 10 10 10 10 10 13 15 16 17 18 18 18 17 16 14 13 12 10 9 9 8 7 6 5 4
18 17 16 17 20 22 21 20 19 18 18 18 17 17 17 17 18 18 17 15 13 11 10 9 9 10 10 11 12 13 15 16 17 18 19 18 18 17 16 15 14 12 11 10 9 9 8 6 5
19 18 18 19 21 22 22 20 18 18 19 18 17 16 16 17 17 17 16 15 14 12 10 7 8 10 11 11 12 13 14 15 15 16 18 19 18 18 18 17 16 14 13 12 11 10 9 8 7
19 20 21 21 22 21 22 21 17 18 18 18 16 14 15 15 15 15 15 15 14 12 10 8 8 9 10 11 11 13 15 15 16 17 19 19 19 18 18 18 17 15 14 13 12 11 11 10 8
20 22 22 22 22 21 21 21 17 18 17 15 14 12 13 13 14 15 14 13 12 11 10 8 8 8 10 11 12 12 15 16 16 17 19 19 19 19 18 18 17 16 15 14 13 12 12 11 10
21 22 23 22 22 21 19 20 16 15 15 14 12 11 12 13 14 14 12 11 10 10 9 8 7 8 10 11 12 13 14 16 17 18 19 20 20 19 19 18 17 17 16 15 14 13 13 12 12
22 22 22 22 21 19 17 17 15 13 13 12 12 11 12 13 12 11 10 9 8 9 8 7 7 8 9 10 11 11 14 16 17 19 20 21 21 20 20 20 19 18 17 16 15 15 15 14 14
22 22 21 20 19 17 17 16 14 12 11 11 10 10 11 12 10 9 9 7 7 7 7 7 7 8 8 10 11 12 13 15 17 20 20 20 21 20 21 20 20 19 17 16 16 16 16 16 16
22 22 21 20 19 18 16 15 13 11 10 11 10 10 10 10 9 8 7 6 6 6 6 6 6 8 9 10 11 12 14 15 17 20 21 21 20 20 20 20 20 20 19 18 18 17 17 17 17
22 21 20 19 18 17 15 13 11 9 9 9 8 9 9 9 9 8 6 6 6 5 5 4 5 7 9 10 11 12 13 15 17 18 20 20 21 20 19 20 20 20 20 20 19 18 19 19 18
22 22 21 20 19 17 15 13 11 10 9 8 7 8 8 9 9 8 8 8 7 5 4 4 5 5 7 9 10 12 13 14 15 17 19 20 20 20 20 20 21 21 21 21 20 20 20 20 20
24 23 22 20 19 17 16 13 11 10 10 9 8 8 8 8 8 7 7 8 7 6 6 5 5 5 6 7 9 10 12 14 15 17 18 18 20 20 20 21 21 21 21 21 21 21 21 21 21
Wind_Direction
55 57 53 47 48 49 52 53 50 45 39 34 31 29 26 23 20 16 14 11 9 345 237 222 218 209 207 201 185 163 141 118 101 87 69 53 38 33 30 28 28 31 33 37 47 56 59 66 77
47 48 48 41 42 45 50 51 49 45 39 33 28 26 24 20 18 13 8 3 357 345 262 228 215 210 208 203 190 173 159 137 113 90 73 54 39 34 31 29 28 30 31 34 44 53 58 66 79
38 42 38 34 34 38 44 46 45 43 38 33 27 22 18 17 14 12 7 4 351 329 279 229 217 211 207 205 199 192 183 167 144 112 82 55 43 36 32 30 31 31 31 36 45 53 59 70 83
22 23 24 26 26 28 34 38 41 39 36 32 25 20 16 14 12 10 5 3 353 319 268 238 223 214 211 209 207 204 199 187 170 149 105 51 42 35 31 28 28 28 30 36 44 53 62 76 89
359 1 9 15 9 18 24 28 32 34 34 29 21 17 12 11 9 7 3 356 344 324 283 258 237 222 213 212 213 210 206 198 190 184 176 54 36 30 25 25 24 25 28 33 44 55 68 79 91
350 350 342 348 350 3 13 19 22 24 26 23 16 10 4 3 3 2 358 352 338 319 299 270 243 227 220 216 216 215 210 206 204 205 209 229 28 24 17 18 18 22 25 30 43 60 65 79 98
326 319 315 321 326 341 359 4 9 14 16 15 12 6 359 357 356 355 353 349 337 319 299 277 251 231 221 220 219 218 215 211 209 212 225 241 279 348 1 3 9 13 15 24 38 52 52 77 95
315 306 301 308 311 322 336 346 355 5 8 9 5 1 357 355 351 348 345 343 335 320 297 276 258 236 222 217 219 219 218 217 216 220 231 233 241 268 321 337 352 358 358 14 30 34 14 115 162
313 304 304 304 304 309 321 327 340 356 0 1 359 354 352 350 347 343 338 335 330 321 300 279 257 240 227 218 217 218 218 218 220 225 230 231 225 236 272 306 329 337 332 346 8 2 329 276 226
310 306 306 304 303 304 312 316 328 346 352 352 351 349 347 347 344 339 335 331 324 315 298 285 258 242 230 223 219 217 217 217 220 225 232 235 229 229 241 264 278 294 294 285 289 283 295 275 255
310 307 306 304 302 304 306 310 321 339 349 347 345 345 345 344 343 339 334 331 322 312 294 282 261 246 234 228 222 216 217 217 220 225 230 233 224 223 230 242 249 265 270 260 268 262 278 268 245
304 306 306 303 303 305 306 307 314 330 341 341 341 342 343 341 338 335 333 329 323 316 303 281 270 250 238 231 225 217 214 217 220 225 228 229 222 221 223 232 238 246 246 239 244 258 262 258 244
301 301 305 304 300 302 302 304 310 319 328 333 331 332 338 337 337 337 334 325 319 310 301 292 275 254 239 230 226 219 215 216 219 222 226 225 223 223 223 228 233 236 233 233 231 244 241 237 237
298 296 297 296 295 295 296 301 304 312 316 321 323 324 330 332 334 333 332 330 329 311 300 295 276 247 233 227 224 219 217 213 215 220 222 221 222 223 225 227 226 228 231 233 227 221 214 208 215
289 288 287 284 286 288 293 297 299 301 307 316 323 326 326 327 328 328 330 328 327 315 297 285 271 238 229 226 221 222 217 216 215 217 219 219 219 220 223 222 223 227 228 230 225 215 207 200 199
282 281 280 280 280 283 290 293 289 296 304 312 321 323 323 324 325 326 328 323 316 310 296 280 273 242 226 227 221 226 219 214 214 218 218 217 216 216 219 221 223 224 225 222 215 213 208 205 205
276 275 274 274 277 278 285 291 288 291 299 310 319 322 320 321 323 323 324 318 312 307 294 279 269 243 225 223 222 218 215 213 214 217 217 215 212 211 216 220 220 219 216 214 209 209 207 210 214
274 275 274 272 274 276 281 287 288 293 298 309 315 317 318 319 323 323 320 316 311 302 292 276 260 247 228 222 217 214 215 214 211 214 214 213 212 210 211 214 215 214 213 210 208 208 207 207 212
274 275 273 271 271 274 278 282 286 291 299 305 311 314 317 319 321 325 320 315 310 300 291 276 257 244 231 223 215 214 216 211 207 212 214 213 211 208 209 213 215 216 215 212 210 212 212 208 208
271 272 270 267 268 273 277 281 285 289 295 301 304 309 312 317 321 324 320 316 314 305 288 269 255 242 228 223 219 218 213 210 211 213 211 207 208 207 209 212 212 215 215 213 214 215 215 216 217
269 270 267 266 270 275 279 281 285 290 294 297 301 304 307 312 317 319 319 317 313 308 299 275 252 241 226 221 220 214 210 211 211 212 210 210 209 207 209 211 213 215 215 217 218 216 218 222 225
266 266 266 268 272 274 281 283 286 292 294 294 296 298 303 307 312 315 317 316 314 310 302 286 261 243 225 219 219 210 206 209 212 212 209 209 207 208 209 212 213 215 218 220 219 221 223 226 226
260 262 266 271 275 278 281 286 292 293 294 294 294 298 305 307 311 312 312 314 311 305 299 282 259 237 225 221 219 212 210 209 209 208 208 208 209 210 210 212 213 218 221 222 222 224 226 228 229
256 258 264 269 275 278 283 287 293 294 296 295 298 298 302 306 310 310 308 308 305 302 297 276 256 235 229 225 222 216 211 209 210 209 210 212 213 213 214 216 217 220 221 223 224 226 227 230 233
252 256 261 267 272 277 280 283 290 291 299 301 301 298 300 303 308 307 303 305 304 301 291 267 249 239 229 223 221 217 212 214 215 212 213 215 217 217 218 220 221 222 223 225 228 230 231 234 236
250 253 258 265 270 271 274 281 290 287 295 302 301 298 300 302 308 307 306 306 307 302 289 272 250 240 231 225 221 221 217 217 213 212 215 217 219 220 221 223 224 225 227 230 232 234 235 238 239
242 248 256 261 267 271 276 283 288 285 292 299 295 296 298 300 300 303 308 310 312 307 299 279 266 249 236 229 226 224 223 218 215 216 216 217 218 220 222 224 225 227 229 233 237 237 239 241 242
238 243 249 258 264 270 278 282 289 288 299 299 294 294 300 304 306 299 298 302 308 307 308 294 273 257 248 240 233 229 226 221 217 215 215 216 219 221 224 225 227 229 231 234 238 241 241 242 245
237 240 245 253 259 267 277 285 291 288 297 303 298 300 304 307 311 305 304 302 298 296 298 301 292 282 264 245 239 237 233 226 223 220 218 219 220 224 227 227 228 230 232 235 239 242 244 245 248
235 240 245 250 256 264 274 283 287 286 289 293 293 297 308 307 308 309 315 312 298 291 294 293 299 293 276 253 248 246 237 230 229 226 222 221 223 226 230 231 232 233 234 237 240 243 246 249 252
Height
5880 5880 5881 5882 5882 5881 5879 5877 5876 5875 5874 5873 5872 5871 5871 5870 5870 5872 5869 5867 5867 5867 5868 5869 5869 5870 5871 5872 5873 5874 5876 5877 5878 5879 5880 5881 5882 5883 5883 5884 5884 5884 5884 5884 5884 5885 5885 5885 5885
5881 5882 5883 5883 5883 5881 5881 5879 5877 5876 5876 5874 5873 5872 5872 5871 5870 5869 5868 5867 5867 5867 5867 5868 5869 5870 5871 5872 5873 5874 5875 5877 5878 5879 5880 5881 5882 5883 5883 5884 5884 5884 5884 5885 5885 5885 5886 5886 5886
5882 5883 5884 5884 5883 5882 5882 5880 5879 5878 5877 5876 5875 5874 5873 5871 5870 5869 5868 5867 5867 5867 5867 5868 5868 5869 5870 5871 5873 5874 5875 5876 5878 5879 5880 5881 5882 5883 5883 5884 5884 5885 5885 5885 5885 5886 5886 5886 5887
5883 5884 5885 5884 5883 5882 5882 5881 5879 5879 5878 5877 5876 5875 5873 5872 5871 5870 5869 5868 5867 5867 5867 5867 5868 5868 5869 5870 5872 5873 5875 5876 5877 5879 5880 5881 5882 5883 5883 5884 5884 5885 5885 5886 5886 5886 5887 5887 5887
5884 5884 5885 5884 5883 5883 5882 5881 5880 5879 5878 5877 5876 5875 5874 5872 5871 5870 5868 5868 5867 5867 5867 5867 5867 5867 5868 5869 5871 5872 5874 5875 5877 5878 5880 5881 5882 5882 5883 5884 5885 5885 5886 5886 5886 5887 5887 5887 5888
5884 5884 5885 5884 5883 5883 5882 5881 5880 5879 5878 5878 5876 5875 5874 5872 5871 5869 5868 5867 5867 5866 5866 5866 5866 5866 5867 5868 5870 5871 5873 5875 5876 5878 5879 5880 5882 5882 5883 5884 5885 5885 5886 5886 5886 5887 5887 5888 5888
5885 5884 5884 5884 5883 5882 5882 5880 5880 5879 5878 5878 5877 5875 5874 5872 5871 5869 5867 5866 5866 5865 5865 5865 5865 5865 5866 5867 5868 5870 5872 5874 5876 5877 5879 5880 5881 5882 5883 5884 5885 5885 5886 5886 5887 5887 5887 5888 5888
5884 5885 5883 5883 5882 5882 5881 5880 5879 5879 5878 5878 5877 5875 5873 5872 5870 5868 5867 5865 5864 5864 5863 5863 5863 5864 5864 5866 5867 5869 5871 5873 5875 5876 5878 5879 5881 5882 5883 5884 5884 5885 5886 5886 5887 5887 5887 5888 5888
5884 5884 5882 5882 5882 5881 5880 5879 5879 5878 5878 5877 5876 5875 5873 5871 5869 5867 5865 5864 5863 5862 5862 5861 5861 5862 5863 5864 5866 5868 5870 5872 5874 5876 5877 5879 5880 5881 5882 5883 5884 5885 5886 5886 5887 5887 5887 5888 5888
5883 5882 5882 5881 5881 5880 5880 5879 5878 5877 5877 5876 5875 5874 5872 5870 5868 5865 5863 5862 5860 5859 5859 5859 5859 5860 5861 5862 5864 5866 5868 5870 5872 5874 5876 5878 5879 5881 5882 5883 5884 5885 5885 5886 5887 5887 5887 5888 5888
5882 5881 5880 5880 5879 5879 5879 5878 5877 5876 5876 5875 5874 5872 5871 5869 5866 5864 5861 5859 5858 5857 5856 5857 5857 5858 5859 5860 5861 5864 5866 5868 5871 5873 5875 5877 5878 5880 5881 5882 5883 5884 5885 5886 5886 5887 5887 5887 5888
5880 5880 5879 5878 5878 5877 5877 5877 5876 5875 5875 5874 5873 5871 5869 5867 5864 5861 5859 5856 5855 5854 5853 5854 5855 5855 5856 5857 5859 5861 5864 5866 5869 5871 5873 5875 5877 5879 5880 5881 5882 5883 5884 5885 5886 5887 5887 5887 5888
5879 5878 5877 5877 5876 5876 5875 5875 5875 5874 5874 5872 5871 5869 5868 5865 5863 5860 5856 5852 5852 5852 5851 5851 5851 5852 5853 5855 5857 5859 5861 5864 5866 5869 5871 5874 5876 5878 5879 5880 5881 5883 5884 5885 5885 5886 5886 5887 5887
5877 5876 5875 5874 5874 5873 5874 5874 5873 5873 5872 5871 5869 5867 5866 5864 5862 5859 5856 5853 5851 5850 5849 5849 5848 5849 5851 5852 5854 5856 5859 5861 5864 5867 5870 5872 5874 5876 5878 5879 5880 5882 5883 5884 5885 5885 5886 5887 5887
5874 5874 5873 5872 5872 5871 5872 5873 5871 5871 5870 5869 5868 5866 5864 5861 5859 5856 5854 5852 5850 5849 5848 5847 5846 5847 5848 5849 5852 5854 5857 5859 5862 5865 5867 5870 5872 5875 5877 5878 5879 5881 5882 5883 5884 5885 5886 5886 5887
5872 5872 5871 5870 5870 5869 5871 5871 5870 5868 5868 5867 5866 5864 5861 5859 5857 5854 5851 5849 5847 5846 5845 5845 5845 5844 5846 5847 5848 5851 5854 5857 5860 5862 5865 5868 5870 5873 5875 5877 5878 5880 5881 5882 5884 5884 5885 5886 5887
5869 5869 5869 5869 5868 5867 5868 5868 5867 5866 5866 5865 5863 5861 5859 5857 5854 5851 5848 5846 5845 5843 5842 5842 5842 5842 5843 5845 5846 5849 5851 5854 5857 5860 5863 5866 5868 5871 5874 5875 5877 5879 5880 5881 5883 5884 5885 5886 5887
5866 5866 5866 5866 5866 5865 5865 5864 5864 5864 5863 5862 5860 5859 5857 5854 5852 5848 5845 5844 5842 5841 5839 5839 5839 5840 5841 5842 5844 5846 5849 5852 5855 5858 5860 5863 5866 5869 5872 5874 5876 5878 5879 5880 5882 5883 5884 5885 5886
5863 5864 5864 5864 5862 5862 5862 5861 5861 5861 5860 5859 5858 5856 5854 5852 5850 5846 5843 5842 5840 5839 5837 5836 5836 5837 5839 5840 5841 5844 5847 5849 5852 5855 5858 5861 5864 5867 5870 5872 5875 5877 5878 5880 5881 5882 5883 5884 5885
5860 5861 5861 5861 5859 5858 5858 5859 5858 5858 5857 5856 5855 5853 5851 5850 5848 5845 5843 5840 5839 5836 5835 5834 5834 5834 5836 5837 5839 5842 5845 5847 5850 5853 5856 5859 5862 5865 5868 5871 5873 5875 5877 5878 5880 5881 5882 5884 5885
5856 5857 5857 5856 5856 5855 5855 5856 5855 5855 5854 5853 5852 5851 5849 5848 5846 5844 5841 5839 5838 5835 5833 5831 5831 5832 5833 5835 5837 5839 5842 5845 5847 5851 5854 5857 5860 5863 5866 5868 5871 5873 5875 5877 5879 5880 5882 5883 5884
5853 5852 5852 5852 5852 5852 5852 5852 5853 5851 5850 5849 5849 5848 5846 5845 5844 5842 5840 5838 5835 5834 5832 5830 5830 5830 5831 5833 5835 5837 5840 5843 5846 5849 5852 5855 5858 5861 5864 5866 5869 5871 5874 5875 5877 5879 5880 5882 5883
5849 5847 5848 5848 5848 5849 5849 5848 5850 5848 5847 5846 5845 5845 5844 5843 5841 5839 5837 5835 5834 5832 5830 5829 5829 5829 5830 5832 5833 5835 5837 5840 5843 5846 5849 5852 5855 5858 5861 5864 5867 5869 5871 5873 5875 5877 5879 5880 5881
5844 5844 5844 5845 5845 5846 5846 5845 5846 5845 5844 5843 5842 5842 5841 5840 5838 5836 5835 5833 5832 5830 5829 5828 5828 5828 5829 5830 5831 5833 5835 5838 5841 5844 5847 5850 5853 5856 5859 5862 5864 5867 5869 5871 5873 5875 5876 5878 5879
5839 5840 5841 5841 5842 5843 5843 5842 5843 5842 5841 5840 5839 5839 5838 5837 5835 5834 5833 5831 5830 5828 5827 5826 5826 5827 5827 5828 5829 5830 5832 5835 5838 5841 5844 5847 5850 5853 5856 5859 5862 5864 5867 5869 5871 5873 5874 5876 5877
5834 5836 5838 5839 5839 5840 5839 5839 5841 5840 5838 5837 5837 5836 5836 5835 5833 5832 5831 5830 5828 5827 5826 5825 5825 5825 5826 5826 5827 5829 5831 5833 5835 5838 5841 5844 5847 5850 5853 5856 5859 5861 5864 5866 5868 5870 5871 5873 5874
5830 5831 5834 5835 5835 5836 5836 5837 5837 5837 5836 5835 5835 5834 5833 5833 5832 5831 5830 5829 5827 5826 5825 5824 5824 5824 5824 5825 5826 5827 5829 5831 5833 5835 5838 5841 5844 5847 5849 5852 5855 5858 5860 5863 5865 5866 5868 5870 5871
5826 5828 5829 5830 5831 5832 5833 5834 5835 5834 5834 5834 5832 5832 5831 5831 5830 5830 5829 5828 5827 5825 5824 5823 5823 5823 5824 5824 5825 5826 5827 5829 5830 5832 5835 5837 5840 5843 5846 5849 5852 5854 5857 5859 5861 5863 5864 5866 5867
5822 5824 5825 5827 5828 5830 5830 5833 5832 5832 5832 5832 5831 5830 5830 5829 5828 5828 5828 5827 5826 5825 5824 5823 5823 5823 5823 5823 5824 5824 5825 5826 5828 5830 5832 5835 5837 5840 5843 5845 5848 5851 5853 5855 5857 5859 5860 5861 5863
5817 5819 5822 5824 5825 5826 5827 5832 5829 5830 5830 5830 5829 5829 5828 5827 5827 5827 5826 5826 5825 5824 5823 5822 5822 5822 5821 5822 5822 5822 5823 5824 5825 5827 5829 5832 5834 5837 5839 5842 5844 5847 5849 5851 5853 5854 5856 5857 5858